Change the Weather History Date:

Friday, March 1, 2013

  Actual Average Record
Temperature  
Mean Temperature 47 °F -  
Max Temperature 61 °F 69 °F 80 °F (1997)
Min Temperature 33 °F 46 °F 33 °F (2013)
Degree Days  
Heating Degree Days 18    
Moisture  
Dew Point 40 °F    
Average Humidity 74    
Maximum Humidity 93    
Minimum Humidity 33    
Precipitation  
Precipitation 0.00 in - - ()
Sea Level Pressure  
Sea Level Pressure 30.02 in    
Wind  
Wind Speed 7 mph ()    
Max Wind Speed 16 mph    
Max Gust Speed -    
Visibility 4.2 miles    
Events      
Averages and records for this station are not official NWS values.
T = Trace of Precipitation, MM = Missing Value Source: Averaged Metar Reports

Daily Weather History Graph

Daily Weather History Graph

Search for Another Location

Airport or City:

Trip Planner

Search our weather history database for the weather conditions in past years. The results will help you decide how hot, cold, wet, or windy it might be!

Date:

Astronomy

Mar. 01, 2013 Rise Set
Actual Time 6:58 AM WET 6:27 PM WET
Civil Twilight 6:33 AM WET 6:52 PM WET
Nautical Twilight 6:04 AM WET 7:20 PM WET
Astronomical Twilight 5:36 AM WET 7:49 PM WET
Moon 10:29 PM WET (3/1) 8:50 AM WET (3/1)
Length of Visible Light 12h 18m
Length of Day
11h 28m
Waning Gibbous, 85% of the Moon is Illuminated
Mar 1
Waning Gibbous
Mar 4
Last Quarter
Mar 11
New
Mar 19
First Quarter
Mar 27
Full

Hourly Weather History & Observations

Time (WET) Temp. Windchill Dew Point Humidity Pressure Visibility Wind Dir Wind Speed Gust Speed Precip Events Conditions
12:00 AM 40 °F - 37 °F 83% 30.11 in 1 mi SSE 6.9 mph - -   Mist
12:00 AM 39.2 °F 34.2 °F 37.4 °F 93% 30.06 in 1.4 mi SSE 6.9 mph - N/A   Mostly Cloudy
12:30 AM 41.0 °F 38.0 °F 37.4 °F 87% 30.06 in - SSE 4.6 mph - N/A   Mostly Cloudy
1:00 AM 39.2 °F - 37.4 °F 93% 30.06 in - Calm Calm - N/A   Mostly Cloudy
1:30 AM 39.2 °F 35.9 °F 35.6 °F 87% 30.04 in - ESE 4.6 mph - N/A   Mist
2:00 AM 37.4 °F 32.1 °F 35.6 °F 93% 30.04 in 3.1 mi SSE 6.9 mph - N/A   Unknown
2:30 AM 37.4 °F 32.1 °F 33.8 °F 87% 30.04 in 3.7 mi SSE 6.9 mph - N/A   Scattered Clouds
3:00 AM 37 °F - 34 °F 84% 30.07 in 4 mi SE 4.6 mph - -   Clear
3:00 AM 37.4 °F 33.8 °F 33.8 °F 87% 30.04 in 3.1 mi SE 4.6 mph - N/A   Scattered Clouds
3:30 AM 37.4 °F 33.8 °F 33.8 °F 87% 30.04 in 3.7 mi SE 4.6 mph - N/A   Scattered Clouds
4:00 AM 35.6 °F 31.7 °F 33.8 °F 93% 30.04 in 3.1 mi SSE 4.6 mph - N/A   Scattered Clouds
4:30 AM 35.6 °F 31.7 °F 32.0 °F 87% 30.04 in 1.9 mi South 4.6 mph - N/A   Scattered Clouds
5:00 AM 35.6 °F 32.8 °F 32.0 °F 87% 30.06 in 1.2 mi South 3.5 mph - N/A   Scattered Clouds
5:30 AM 35.6 °F 32.8 °F 32.0 °F 87% 30.06 in 2.8 mi South 3.5 mph - N/A   Scattered Clouds
6:00 AM 35 °F - 32 °F 83% 30.10 in 2 mi SE 4.6 mph - -   Mist
6:00 AM 33.8 °F 29.6 °F 32.0 °F 93% 30.04 in - SE 4.6 mph - N/A   Scattered Clouds
6:30 AM 35.6 °F 30.7 °F 32.0 °F 87% 30.04 in 3.7 mi SSE 5.8 mph - N/A   Scattered Clouds
7:00 AM 33.8 °F 29.6 °F 32.0 °F 93% 30.06 in 1.6 mi SE 4.6 mph - N/A   Scattered Clouds
7:30 AM 33.8 °F 29.6 °F 32.0 °F 93% 30.06 in 3.1 mi SSE 4.6 mph - N/A   Scattered Clouds
7:39 AM 35.6 °F 31.7 °F 33.8 °F 93% 30.06 in 1.9 mi SE 4.6 mph - N/A   Scattered Clouds
8:00 AM 37.4 °F 33.8 °F 35.6 °F 93% 30.06 in 1.9 mi SSE 4.6 mph - N/A   Scattered Clouds
8:30 AM 41.0 °F 37.1 °F 39.2 °F 93% 30.06 in 0.9 mi SSE 5.8 mph - N/A   Scattered Clouds
9:00 AM 46 °F - 43 °F 85% 30.10 in 6 mi SE 5.8 mph - -   Clear
9:00 AM 46.4 °F 43.5 °F 42.8 °F 87% 30.06 in - SE 5.8 mph - N/A   Clear
9:30 AM 50.0 °F - 46.4 °F 87% 30.06 in - SE 6.9 mph - N/A   Clear
10:00 AM 53.6 °F - 46.4 °F 77% 30.06 in - ESE 8.1 mph - N/A   Clear
10:30 AM 55.4 °F - 44.6 °F 67% 30.06 in 6.2 mi East 8.1 mph - N/A   Scattered Clouds
11:00 AM 55.4 °F - 44.6 °F 67% 30.06 in 6.2 mi East 6.9 mph - N/A   Scattered Clouds
11:30 AM 57.2 °F - 42.8 °F 59% 30.04 in 6.2 mi East 8.1 mph - N/A   Scattered Clouds
12:00 PM 58 °F - 42 °F 43% 30.04 in 6 mi East 9.2 mph - -   Clear
12:00 PM 57.2 °F - 41.0 °F 55% 30.04 in 6.2 mi East 9.2 mph - N/A   Scattered Clouds
12:30 PM 59.0 °F - 42.8 °F 55% 30.01 in 6.2 mi ENE 9.2 mph - N/A   Scattered Clouds
1:00 PM 59.0 °F - 42.8 °F 55% 30.01 in - East 5.8 mph - N/A   Clear
1:30 PM 60.8 °F - 42.8 °F 52% 30.01 in - NE 6.9 mph - N/A   Clear
2:00 PM 60.8 °F - 41.0 °F 48% 29.98 in - NNE 9.2 mph - N/A   Clear
2:30 PM 60.8 °F - 41.0 °F 48% 29.98 in - NNE 11.5 mph - N/A   Clear
3:00 PM 62 °F - 40 °F 33% 29.98 in 6 mi NNE 12.7 mph - -   Partly Cloudy
3:00 PM 62.6 °F - 41.0 °F 45% 29.98 in - NNE 12.7 mph - N/A   Clear
3:30 PM 60.8 °F - 46.4 °F 59% 29.98 in - North 16.1 mph - N/A   Clear
4:00 PM 60.8 °F - 44.6 °F 55% 29.98 in - NNE 15.0 mph - N/A   Clear
4:30 PM 59.0 °F - 44.6 °F 59% 29.98 in - NNE 16.1 mph - N/A   Clear
5:00 PM 59.0 °F - 44.6 °F 59% 29.98 in - NNE 13.8 mph - N/A   Clear
5:30 PM 57.2 °F - 44.6 °F 63% 29.98 in - NNE 15.0 mph - N/A   Clear
6:00 PM 56 °F - 44 °F 53% 29.97 in 6 mi NNE 15.0 mph - -   Clear
6:00 PM 55.4 °F - 42.8 °F 63% 29.95 in - NNE 15.0 mph - N/A   Clear
6:30 PM 53.6 °F - 42.8 °F 67% 29.98 in - NNE 15.0 mph - N/A   Clear
7:00 PM 53.6 °F - 42.8 °F 67% 29.98 in - NNE 12.7 mph - N/A   Clear
7:30 PM 51.8 °F - 44.6 °F 76% 29.98 in - NNE 13.8 mph - N/A   Clear
8:00 PM 51.8 °F - 44.6 °F 76% 29.98 in - NNE 13.8 mph - N/A   Clear
8:30 PM 51.8 °F - 44.6 °F 76% 29.98 in 6.2 mi NE 13.8 mph - N/A   Scattered Clouds
9:00 PM 52 °F - 43 °F 64% 29.99 in 6 mi NE 12.7 mph - -  
9:00 PM 51.8 °F - 42.8 °F 71% 29.98 in 6.2 mi NE 12.7 mph - N/A   Scattered Clouds
9:30 PM 51.8 °F - 42.8 °F 71% 29.98 in 6.2 mi NE 13.8 mph - N/A   Scattered Clouds
10:00 PM 50.0 °F - 42.8 °F 76% 29.95 in 6.2 mi NE 12.7 mph - N/A   Scattered Clouds
10:30 PM 50.0 °F - 42.8 °F 76% 29.95 in 6.2 mi ENE 12.7 mph - N/A   Scattered Clouds
11:00 PM 50.0 °F - 42.8 °F 76% 29.95 in 6.2 mi NE 10.4 mph - N/A   Scattered Clouds
11:30 PM 48.2 °F - 42.8 °F 82% 29.95 in 6.2 mi NE 8.1 mph - N/A   Scattered Clouds